When you browse on this site, cookies collect data to enhance your experience and personalize the content and advertising you see.
Visit our Privacy Policy to learn more. By continuing to use the site, you agree to this use of cookies and data.
  • In Portugal
  • List of Countries
  • For 7 days
  • Water Temperature
  • Weather Map
  • Weather Widgets
  • user-avatar
    Login

    Hourly Weather Corozal

    Today, 13 December, Friday

    Time Temperature Precipitation Wind Pressure Humidity
    00:00 +24°C° 0 mm 1 mps 760 mmHg 97%
    01:00 +23°C° 0 mm 1 mps 760 mmHg 97%
    02:00 +23°C° 0 mm 1 mps 760 mmHg 98%
    03:00 +23°C° 0 mm 1 mps 759 mmHg 98%
    04:00 +23°C° 0 mm 1 mps 759 mmHg 98%
    05:00 +23°C° 0 mm 1 mps 759 mmHg 98%
    06:00 +23°C° 0 mm 1 mps 759 mmHg 98%
    07:00 +24°C° 0 mm 1 mps 760 mmHg 95%
    08:00 +25°C° 0 mm 2 mps 760 mmHg 91%
    09:00 +26°C° 0 mm 2 mps 761 mmHg 88%
    10:00 +28°C° 0 mm 1 mps 760 mmHg 79%
    11:00 +30°C° 0 mm 1 mps 760 mmHg 69%
    12:00 +31°C° 0 mm 1 mps 759 mmHg 60%
    13:00 +31°C° 0.1 mm 1 mps 758 mmHg 61%
    14:00 +31°C° 0.1 mm 1 mps 758 mmHg 62%
    15:00 +31°C° 0.1 mm 1 mps 757 mmHg 62%
    16:00 +29°C° 0.6 mm 1 mps 757 mmHg 72%
    17:00 +27°C° 0.6 mm 2 mps 758 mmHg 81%
    18:00 +25°C° 0.6 mm 2 mps 758 mmHg 91%
    19:00 +25°C° 0.1 mm 2 mps 758 mmHg 92%
    20:00 +24°C° 0.1 mm 1 mps 759 mmHg 93%
    21:00 +24°C° 0.1 mm 1 mps 759 mmHg 94%
    22:00 +24°C° 0 mm 1 mps 759 mmHg 94%
    23:00 +24°C° 0 mm 1 mps 759 mmHg 95%

    Tomorrow, 14 December, Saturday

    Time Temperature Precipitation Wind Pressure Humidity
    00:00 +22°C° 0 mm 0 mps 759 mmHg 95%
    01:00 +23°C° 0.1 mm 1 mps 759 mmHg 96%
    02:00 +23°C° 0.1 mm 1 mps 759 mmHg 97%
    03:00 +23°C° 0.1 mm 1 mps 758 mmHg 97%
    04:00 +23°C° 0 mm 1 mps 759 mmHg 97%
    05:00 +23°C° 0 mm 1 mps 759 mmHg 98%
    06:00 +22°C° 0 mm 1 mps 759 mmHg 98%
    07:00 +24°C° 0 mm 1 mps 760 mmHg 93%
    08:00 +25°C° 0 mm 1 mps 760 mmHg 89%
    09:00 +27°C° 0 mm 1 mps 761 mmHg 84%
    10:00 +28°C° 0.3 mm 1 mps 760 mmHg 78%
    11:00 +30°C° 0.3 mm 1 mps 760 mmHg 71%
    12:00 +31°C° 0.3 mm 1 mps 759 mmHg 64%
    13:00 +31°C° 0 mm 1 mps 759 mmHg 64%
    14:00 +31°C° 0 mm 1 mps 758 mmHg 63%
    15:00 +31°C° 0 mm 1 mps 758 mmHg 62%
    16:00 +29°C° 0 mm 1 mps 758 mmHg 69%
    17:00 +27°C° 0 mm 2 mps 758 mmHg 76%
    18:00 +25°C° 0 mm 2 mps 758 mmHg 84%
    19:00 +25°C° 0 mm 2 mps 759 mmHg 85%
    20:00 +24°C° 0 mm 2 mps 759 mmHg 86%
    21:00 +24°C° 0 mm 1 mps 760 mmHg 87%
    22:00 +24°C° 0 mm 1 mps 760 mmHg 87%
    23:00 +23°C° 0 mm 1 mps 760 mmHg 88%

    Day after tomorrow, 15 December, Sunday

    Time Temperature Precipitation Wind Pressure Humidity
    00:00 +23°C° 0 mm 1 mps 759 mmHg 89%
    01:00 +23°C° 0 mm 1 mps 759 mmHg 90%
    02:00 +23°C° 0 mm 1 mps 759 mmHg 90%
    03:00 +23°C° 0 mm 1 mps 759 mmHg 91%
    04:00 +23°C° 0 mm 1 mps 759 mmHg 92%
    05:00 +23°C° 0 mm 1 mps 760 mmHg 92%
    06:00 +23°C° 0 mm 1 mps 760 mmHg 92%
    07:00 +25°C° 0 mm 1 mps 761 mmHg 84%
    08:00 +27°C° 0 mm 2 mps 761 mmHg 76%
    09:00 +29°C° 0 mm 2 mps 762 mmHg 69%
    10:00 +29°C° 0.1 mm 3 mps 761 mmHg 65%
    11:00 +30°C° 0.1 mm 3 mps 761 mmHg 62%
    12:00 +31°C° 0.1 mm 3 mps 761 mmHg 59%
    13:00 +31°C° 0 mm 3 mps 760 mmHg 60%
    14:00 +30°C° 0 mm 3 mps 759 mmHg 61%
    15:00 +30°C° 0 mm 3 mps 759 mmHg 62%
    16:00 +28°C° 0 mm 3 mps 759 mmHg 70%
    17:00 +27°C° 0 mm 3 mps 759 mmHg 77%
    18:00 +25°C° 0 mm 2 mps 759 mmHg 85%
    19:00 +25°C° 0 mm 2 mps 759 mmHg 87%
    20:00 +24°C° 0 mm 2 mps 760 mmHg 89%
    21:00 +24°C° 0 mm 2 mps 760 mmHg 91%
    22:00 +24°C° 0 mm 2 mps 760 mmHg 92%
    23:00 +24°C° 0 mm 2 mps 760 mmHg 92%

    16 December, Monday

    Time Temperature Precipitation Wind Pressure Humidity
    00:00 +24°C° 0 mm 2 mps 759 mmHg 93%
    01:00 +24°C° 0 mm 2 mps 759 mmHg 93%
    02:00 +24°C° 0 mm 2 mps 759 mmHg 94%
    03:00 +24°C° 0 mm 2 mps 759 mmHg 95%
    04:00 +24°C° 0 mm 2 mps 759 mmHg 95%
    05:00 +24°C° 0 mm 2 mps 759 mmHg 95%
    06:00 +24°C° 0 mm 2 mps 759 mmHg 95%
    07:00 +26°C° 0.2 mm 2 mps 760 mmHg 90%
    08:00 +27°C° 0.2 mm 3 mps 760 mmHg 84%
    09:00 +29°C° 0.2 mm 3 mps 761 mmHg 78%
    10:00 +29°C° 0.5 mm 4 mps 760 mmHg 78%
    11:00 +30°C° 0.5 mm 4 mps 760 mmHg 77%
    12:00 +30°C° 0.5 mm 4 mps 759 mmHg 76%
    13:00 +30°C° 0.2 mm 4 mps 758 mmHg 75%
    14:00 +30°C° 0.2 mm 4 mps 758 mmHg 74%
    15:00 +30°C° 0.2 mm 4 mps 757 mmHg 73%
    16:00 +29°C° 0 mm 3 mps 757 mmHg 79%
    17:00 +27°C° 0 mm 2 mps 758 mmHg 84%
    18:00 +26°C° 0 mm 2 mps 758 mmHg 90%
    19:00 +26°C° 0 mm 2 mps 758 mmHg 92%
    20:00 +26°C° 0 mm 2 mps 759 mmHg 93%
    21:00 +26°C° 0 mm 2 mps 759 mmHg 95%
    22:00 +25°C° 0 mm 2 mps 759 mmHg 95%
    23:00 +25°C° 0 mm 2 mps 759 mmHg 95%

    17 December, Tuesday

    Time Temperature Precipitation Wind Pressure Humidity
    00:00 +25°C° 0 mm 2 mps 758 mmHg 96%
    01:00 +25°C° 0 mm 2 mps 758 mmHg 96%
    02:00 +25°C° 0 mm 2 mps 758 mmHg 96%
    03:00 +25°C° 0 mm 1 mps 757 mmHg 96%
    04:00 +25°C° 0.1 mm 1 mps 758 mmHg 96%
    05:00 +25°C° 0.1 mm 1 mps 758 mmHg 96%
    06:00 +25°C° 0.1 mm 1 mps 758 mmHg 96%
    07:00 +26°C° 0.3 mm 1 mps 759 mmHg 92%
    08:00 +28°C° 0.3 mm 1 mps 759 mmHg 88%
    09:00 +29°C° 0.3 mm 1 mps 759 mmHg 84%
    10:00 +29°C° 1.1 mm 1 mps 759 mmHg 83%
    11:00 +29°C° 1.1 mm 1 mps 758 mmHg 82%
    12:00 +30°C° 1.1 mm 1 mps 758 mmHg 81%
    13:00 +30°C° 0.7 mm 1 mps 758 mmHg 79%
    14:00 +30°C° 0.7 mm 1 mps 757 mmHg 78%
    15:00 +30°C° 0.7 mm 2 mps 757 mmHg 76%
    16:00 +29°C° 1.5 mm 2 mps 757 mmHg 81%
    17:00 +28°C° 1.5 mm 2 mps 757 mmHg 85%
    18:00 +26°C° 1.5 mm 2 mps 758 mmHg 89%
    19:00 +26°C° 1.4 mm 2 mps 758 mmHg 91%
    20:00 +26°C° 1.4 mm 2 mps 759 mmHg 92%
    21:00 +25°C° 1.4 mm 1 mps 759 mmHg 93%
    22:00 +25°C° 1 mm 1 mps 759 mmHg 94%
    23:00 +25°C° 1 mm 1 mps 759 mmHg 95%

    18 December, Wednesday

    Time Temperature Precipitation Wind Pressure Humidity
    00:00 +25°C° 1 mm 1 mps 759 mmHg 96%
    01:00 +25°C° 1.2 mm 2 mps 759 mmHg 96%
    02:00 +25°C° 1.2 mm 2 mps 758 mmHg 96%
    03:00 +25°C° 1.2 mm 2 mps 758 mmHg 96%
    04:00 +25°C° 0.6 mm 2 mps 759 mmHg 96%
    05:00 +24°C° 0.6 mm 2 mps 759 mmHg 96%
    06:00 +24°C° 0.6 mm 2 mps 760 mmHg 96%
    07:00 +25°C° 0.6 mm 3 mps 760 mmHg 95%
    08:00 +25°C° 0.6 mm 3 mps 761 mmHg 95%
    09:00 +26°C° 0.6 mm 3 mps 761 mmHg 94%
    10:00 +26°C° 1.2 mm 3 mps 761 mmHg 92%
    11:00 +26°C° 1.2 mm 3 mps 761 mmHg 91%
    12:00 +26°C° 1.2 mm 3 mps 761 mmHg 90%
    13:00 +26°C° 2.2 mm 3 mps 760 mmHg 91%
    14:00 +26°C° 2.2 mm 3 mps 760 mmHg 92%
    15:00 +26°C° 2.2 mm 3 mps 759 mmHg 92%
    16:00 +26°C° 2.4 mm 3 mps 760 mmHg 93%
    17:00 +25°C° 2.4 mm 4 mps 760 mmHg 93%
    18:00 +25°C° 2.4 mm 4 mps 760 mmHg 94%
    19:00 +25°C° 1.8 mm 4 mps 761 mmHg 94%
    20:00 +25°C° 1.8 mm 4 mps 761 mmHg 94%
    21:00 +25°C° 1.8 mm 4 mps 762 mmHg 94%
    22:00 +23°C° 0.9 mm 4 mps 762 mmHg 95%
    23:00 +23°C° 0.9 mm 4 mps 762 mmHg 95%
    Show more